GFSSW_850_temp_333.txt.gz
Temp
11 11 11 11 11 12 12 11 12 12 12 12 12 11 11 10 10 10 8 9 10 10 11 11 10 11 12 13 13 13 17 17 17 16 17 16 16 16 16 16 16 16 16 16 15
11 11 11 11 11 11 11 11 12 12 12 12 11 11 11 10 9 8 9 9 10 10 10 10 11 12 14 13 13 16 16 17 16 16 16 16 15 15 15 16 17 16 16 16 15
11 11 11 11 11 11 11 11 11 11 12 12 12 11 11 10 9 7 9 9 10 10 10 10 10 12 14 13 13 14 16 15 15 14 14 14 14 14 15 16 16 14 14 14 14
10 11 11 11 11 11 11 11 11 11 11 11 11 11 11 10 13 8 9 9 9 10 10 10 11 13 14 14 13 14 14 14 13 13 12 14 14 14 15 15 12 13 12 13 13
10 11 11 11 11 11 11 11 11 11 11 11 10 10 10 10 7 8 9 9 9 10 9 10 11 12 14 13 13 13 14 12 13 12 12 12 13 14 14 14 11 12 11 11 10
10 10 10 10 10 10 10 10 10 11 11 10 10 10 9 11 8 8 9 9 9 9 9 9 10 10 12 12 13 12 12 13 12 13 12 12 13 12 14 11 11 11 11 10 10
9 10 10 10 10 9 10 10 10 10 10 10 10 9 9 7 8 8 8 8 9 9 8 9 9 10 10 12 10 11 12 14 14 13 13 11 13 13 11 10 12 11 11 10 9
9 9 9 9 9 9 9 9 9 10 10 10 9 9 7 7 6 7 8 8 8 8 9 9 9 9 10 9 11 12 12 14 14 13 12 12 14 14 9 10 11 11 10 9 9
9 9 8 9 9 9 9 9 9 9 9 9 8 8 7 7 6 7 7 7 7 8 8 8 8 9 9 11 13 12 14 14 15 12 12 12 14 13 10 9 11 10 9 8 8
9 9 8 8 8 8 8 8 8 8 8 8 8 8 6 7 6 6 7 7 7 7 8 8 9 11 11 12 13 14 13 14 13 13 12 12 13 14 12 8 10 9 8 8 7
8 8 8 8 8 8 8 7 6 6 6 5 6 6 6 5 6 6 6 6 7 8 10 9 10 12 14 13 12 11 11 12 13 13 9 11 13 14 13 9 9 9 8 7 6
8 8 8 7 8 8 8 6 8 7 6 5 5 5 5 5 7 6 6 7 8 10 9 9 11 11 9 9 9 10 10 11 12 12 9 11 12 13 14 10 8 7 7 6 5
7 7 7 7 7 7 7 7 7 7 9 5 4 5 5 6 7 7 6 7 9 9 9 10 10 8 8 9 8 9 9 10 11 11 11 10 10 12 13 9 6 5 5 4 4
7 7 7 7 7 7 7 7 7 7 10 7 6 5 5 5 7 5 5 7 8 9 9 9 9 7 8 8 9 8 11 10 9 9 9 9 9 12 13 8 7 6 5 5 4
7 6 6 6 6 6 7 7 7 6 10 6 5 4 4 6 6 5 5 6 8 8 7 9 7 7 7 9 9 9 8 8 9 8 9 10 8 12 11 10 8 7 5 4 3
6 6 6 5 6 6 7 6 6 7 10 4 5 6 6 6 6 5 6 5 5 7 7 8 6 7 9 8 8 8 8 8 8 8 6 9 10 11 12 10 11 7 5 3 3
5 5 5 5 5 6 6 6 6 8 4 4 5 5 7 6 6 6 7 7 7 6 8 8 7 7 7 7 7 7 8 7 6 5 6 7 8 10 11 9 9 7 5 3 3
4 4 4 5 5 5 5 6 7 4 4 4 5 5 6 6 6 6 6 7 7 6 7 8 8 6 7 8 8 7 7 7 6 8 8 6 6 10 5 5 6 6 4 3 3
2 3 3 4 4 4 4 4 7 5 4 4 4 4 4 4 5 5 6 7 6 6 7 8 7 6 6 6 7 7 6 7 5 5 3 7 9 5 4 4 4 4 3 3 2
1 1 2 3 3 3 2 6 4 5 4 5 7 5 5 2 5 5 6 5 5 3 4 5 5 5 5 5 6 6 7 5 5 4 5 7 8 8 5 4 4 4 4 3 2
1 1 1 2 2 3 3 4 3 2 3 5 5 2 5 2 4 4 6 3 4 3 3 5 4 6 5 6 7 5 4 4 5 5 5 5 7 7 6 6 4 4 4 4 2
-0 0 -0 1 1 -2 2 1 2 2 1 3 4 4 3 2 2 4 5 5 3 3 3 4 3 4 6 5 3 3 4 5 4 4 6 5 5 6 5 5 5 4 4 3 2
-1 -2 -1 -0 1 0 -2 1 2 1 2 2 3 3 1 1 3 2 3 1 1 3 2 2 2 3 5 4 3 2 4 4 3 0 2 3 5 4 3 3 3 4 3 2 1
1 -1 -3 -2 -3 1 0 1 1 -0 1 2 1 1 0 -1 -2 -0 1 1 -0 1 0 1 1 2 4 5 4 2 3 3 1 0 2 3 3 5 4 2 3 2 3 2 1
0 0 -1 -2 -2 -1 1 1 0 -1 0 1 -0 2 1 -1 -3 -2 0 -0 -0 -0 0 1 -1 -0 -0 1 1 1 1 1 1 -0 -0 2 1 2 2 1 1 1 2 2 1
0 -2 -3 -4 -1 0 1 -0 0 -1 -0 0 -0 2 1 -0 2 -1 -2 -1 0 -1 -1 -2 0 -2 -3 0 0 -2 -0 0 1 -0 -0 0 0 3 3 3 1 -0 -1 -1 -1
-0 0 1 -3 -1 0 2 0 1 0 -1 0 0 1 0 0 -1 -1 -1 -1 -1 -2 -2 -2 -1 -3 -1 -3 -3 -3 -1 0 0 0 -1 -2 -0 1 -0 0 -1 -1 -2 -3 -2

GFSSW_850_temp_336.txt.gz
Temp
10 11 11 11 12 11 12 12 12 12 12 12 12 12 12 12 11 10 11 11 11 11 11 12 11 12 13 14 14 14 14 16 17 17 16 16 16 16 16 16 17 17 16 16 15
11 10 11 11 11 11 11 12 12 12 12 12 12 12 12 11 9 10 10 10 11 11 10 11 12 13 14 14 14 15 14 16 16 16 15 16 15 15 15 16 16 15 15 14 14
10 10 11 11 11 11 11 11 11 12 12 12 12 12 12 11 10 8 10 10 11 11 11 11 11 12 14 14 14 15 14 15 16 14 13 14 14 15 15 14 14 13 13 13 13
10 10 10 10 10 10 10 11 11 11 12 12 12 12 11 11 11 9 9 10 10 11 10 10 12 13 14 14 14 13 15 14 14 13 12 13 13 13 14 14 13 13 12 12 11
10 10 10 10 10 10 10 11 11 11 12 12 11 11 11 10 7 9 9 10 10 10 10 10 12 12 14 14 13 13 14 13 13 13 12 13 13 13 14 14 12 12 12 12 11
10 10 10 10 10 10 10 10 11 11 11 11 11 11 11 11 8 8 9 9 10 9 9 10 10 10 12 13 12 12 12 12 13 13 13 12 12 13 13 12 11 12 12 11 10
10 10 10 10 10 10 10 10 11 11 11 11 11 11 9 8 8 8 8 9 9 9 9 9 9 10 11 12 11 11 10 12 14 14 13 11 11 11 13 11 11 12 12 11 10
10 10 10 10 10 9 10 10 10 10 10 10 10 10 7 8 7 8 8 8 8 9 9 9 9 9 10 10 11 11 12 11 13 13 12 12 10 12 11 10 11 12 11 10 9
9 9 9 9 9 9 9 10 9 9 10 9 9 9 7 7 7 7 7 7 8 8 9 9 9 9 10 10 10 11 10 12 13 13 12 11 10 12 11 10 10 11 10 9 8
9 9 9 9 9 9 9 8 9 9 8 9 8 8 7 7 7 7 7 7 7 8 8 9 9 9 9 9 9 10 11 12 12 12 11 10 10 12 13 11 10 10 9 8 7
9 9 8 8 8 8 8 8 8 7 6 6 7 7 6 6 7 6 7 7 8 8 10 9 8 8 12 11 10 9 9 9 10 12 11 9 9 10 13 12 9 10 9 7 6
8 8 8 8 8 8 8 6 8 7 6 5 6 6 6 6 7 6 7 8 8 9 9 8 8 9 9 9 8 8 8 8 10 12 9 8 8 10 11 12 11 9 8 6 5
8 8 8 7 8 7 8 8 8 8 8 5 5 6 6 6 8 7 7 7 9 9 9 8 10 9 9 9 8 8 8 8 8 9 9 8 7 9 11 11 8 6 5 5 4
7 7 7 7 7 7 7 8 8 8 8 6 6 5 5 6 7 5 6 7 8 8 9 9 8 8 7 7 8 7 8 8 8 7 5 9 3 9 10 8 7 6 5 5 4
7 7 7 6 6 6 7 7 7 7 8 7 6 5 5 7 6 5 6 6 8 9 7 8 8 7 7 8 9 8 8 7 7 5 5 7 4 8 10 7 6 6 6 4 3
6 6 6 6 6 7 7 7 7 6 7 4 6 6 6 6 6 5 6 6 6 7 7 7 7 7 8 8 8 8 7 7 7 5 0 6 6 7 6 7 7 6 5 4 3
6 6 5 6 6 6 6 7 5 6 4 3 5 6 6 6 6 6 6 6 6 5 7 8 7 7 6 7 7 6 5 1 1 0 1 5 5 7 6 6 7 5 5 4 3
5 5 5 6 6 5 5 4 6 4 3 4 5 6 6 6 6 6 6 6 7 6 5 6 5 7 6 7 6 6 5 2 1 1 4 6 3 7 5 6 6 6 5 4 3
2 3 4 5 5 5 4 4 5 4 3 3 5 3 4 5 5 5 6 7 5 5 5 5 6 6 5 6 6 6 3 6 1 -0 -1 4 6 5 5 5 5 5 4 3 3
1 1 3 4 4 4 2 6 3 5 5 5 5 3 2 1 4 4 5 5 4 3 4 4 3 5 4 5 5 5 5 2 0 -2 -1 3 5 5 4 3 3 3 3 3 3
-0 1 1 2 3 3 2 3 3 4 4 5 4 1 4 1 3 3 5 2 4 3 4 5 3 4 4 3 5 2 2 2 3 2 -1 0 3 6 5 5 2 3 4 4 3
0 0 0 1 1 -1 1 1 3 2 2 3 5 3 2 1 1 4 4 3 4 3 2 3 3 1 4 4 3 3 3 3 -1 1 2 2 3 4 4 4 3 4 4 4 3
-0 -2 -1 0 0 -0 -1 1 2 2 1 2 3 3 1 -0 1 2 3 1 2 3 1 1 -1 -2 1 3 2 2 3 2 -1 -2 0 -0 1 4 4 3 3 3 4 4 3
1 -2 -2 -1 -1 1 0 0 0 1 2 3 1 1 -0 -2 -2 -2 2 0 1 1 1 1 -1 -2 0 3 2 2 2 2 -3 -4 -1 0 0 2 2 0 2 3 3 3 3
1 0 -0 -3 -2 -1 1 0 0 -1 0 1 0 1 0 -4 -4 -4 -1 -1 -1 0 0 -1 -4 -3 -2 -1 -1 -0 -0 -0 -2 -2 -5 -0 -1 -1 -1 -1 1 2 2 2 2
1 -1 -2 -2 -0 -0 0 -1 0 -0 -1 -0 -1 1 -1 -2 -1 -3 -4 -3 -2 -2 -3 -3 -4 -3 -8 -2 -1 -2 -1 -1 -1 -2 -2 -1 -2 1 1 1 0 -0 -0 -0 -0
0 1 2 -2 -1 -1 1 -0 1 -0 0 1 0 -0 -0 -0 -0 -0 -0 -0 -1 -4 -5 -6 -5 -7 -7 -3 -5 -8 -3 -1 -3 -4 -6 -4 -3 -1 -4 -3 -1 -1 -2 -1 -2

GFSSW_850_temp_339.txt.gz
Temp
12 12 11 11 11 11 11 12 12 12 12 13 13 12 12 12 12 12 12 11 11 11 12 12 12 13 13 13 14 14 10 11 13 14 13 15 14 15 15 15 15 14 14 13 14
12 11 11 11 11 11 11 11 12 12 12 12 12 12 12 11 11 12 10 11 11 11 12 12 12 13 14 14 14 13 9 12 14 13 11 13 13 14 14 14 14 15 15 15 14
11 11 11 11 11 11 11 11 11 12 12 12 12 12 11 11 11 10 10 10 11 11 11 11 12 13 14 13 13 12 11 13 13 13 13 12 13 13 13 12 12 12 13 13 12
11 11 11 11 11 11 11 11 11 11 11 11 11 11 11 11 11 9 10 10 10 11 11 11 12 13 13 12 13 11 13 13 13 12 12 11 12 12 13 13 12 12 12 12 11
10 11 11 11 11 11 11 11 11 11 12 11 11 11 10 10 9 9 9 10 10 11 11 11 11 12 11 12 12 11 11 12 13 13 12 12 11 11 12 13 12 12 12 11 11
10 11 11 10 11 11 10 11 11 11 11 11 11 11 10 9 9 9 9 10 10 10 10 11 10 11 11 12 10 10 11 11 12 12 13 11 11 11 12 12 12 12 12 11 10
10 10 10 10 10 10 10 10 10 11 11 11 11 10 10 8 8 8 9 9 10 9 9 10 10 10 11 11 10 11 9 9 11 12 11 11 10 10 12 11 12 12 11 10 9
10 10 10 10 10 10 10 10 10 10 10 10 10 10 8 7 8 8 8 8 9 9 9 9 10 10 10 10 10 10 9 8 11 11 11 11 8 10 11 12 11 11 10 9 8
10 10 10 10 10 10 10 10 10 10 9 10 9 9 7 7 7 8 8 8 8 9 9 9 10 9 9 7 6 7 8 10 11 12 10 10 8 10 11 11 11 10 9 8 7
10 9 9 10 9 9 9 9 9 9 9 9 8 8 7 7 7 7 8 8 8 8 9 9 9 5 4 5 7 8 8 8 8 10 10 9 7 8 11 11 10 10 8 7 6
9 9 9 9 9 9 9 9 8 8 7 6 7 7 7 7 7 7 7 8 8 8 7 8 5 6 6 8 8 8 7 6 6 8 8 7 6 6 9 10 8 9 7 6 5
9 9 9 9 9 9 8 8 8 8 6 6 6 6 6 6 7 7 7 7 8 7 8 5 6 7 8 8 7 7 6 5 6 8 8 7 7 8 8 9 9 7 5 5 5
8 8 8 8 8 8 8 8 8 8 7 5 6 6 6 7 7 6 7 7 8 8 8 6 7 8 8 7 7 7 7 5 6 6 6 5 4 7 9 6 6 5 5 4 4
8 8 8 8 7 8 8 8 7 8 3 5 5 5 6 6 6 6 6 7 7 7 7 7 7 7 6 7 7 6 6 6 6 4 3 5 1 5 7 5 4 5 5 4 4
8 7 7 7 7 7 8 8 7 7 4 6 5 5 5 6 6 5 6 7 6 7 6 7 6 6 6 7 8 6 6 6 6 5 3 4 1 3 7 7 5 4 4 4 4
7 7 7 6 7 7 7 7 7 2 5 3 5 5 5 6 6 5 6 6 6 6 7 6 7 6 6 7 7 6 6 4 5 3 -3 3 4 3 5 6 5 4 4 4 3
6 6 6 6 6 7 7 7 1 2 4 2 3 4 5 5 5 5 5 5 4 3 5 6 6 6 6 6 6 5 3 -3 -1 -2 -1 4 4 4 6 5 5 4 4 3 3
4 5 6 6 6 6 6 1 2 1 1 3 4 4 4 5 5 5 5 3 4 5 3 4 3 6 6 6 5 5 3 -2 -2 -1 1 5 2 5 5 5 6 6 4 3 3
2 3 4 4 5 5 6 -2 2 2 2 3 3 1 2 4 4 4 4 4 3 5 3 3 5 5 5 5 5 4 2 4 -3 -5 -3 1 3 5 4 4 5 4 4 3 3
2 1 3 4 4 4 -0 2 2 4 3 4 3 0 -1 -1 3 3 3 3 3 3 4 3 2 4 4 4 4 4 4 0 -3 -4 -4 0 3 3 4 4 2 3 4 3 3
0 2 2 2 2 3 -2 -1 3 4 5 3 1 -0 1 -1 1 1 3 3 3 2 3 4 2 3 4 3 2 -0 -1 0 1 0 -3 -3 2 4 3 2 1 2 3 4 3
0 -1 1 1 1 -0 -3 0 3 2 3 3 4 2 1 -0 -1 2 3 3 3 2 1 2 0 -1 2 2 2 2 2 1 -2 -1 -1 -2 2 4 3 2 2 3 3 3 4
-1 -3 -1 -0 -2 -4 -2 1 2 1 1 2 3 2 1 -1 0 -0 1 1 2 2 0 0 -3 -7 -2 0 1 2 2 1 -5 -6 -2 -5 0 2 3 1 2 1 2 2 2
1 -3 -3 -2 -1 -1 -1 -0 -0 1 1 2 0 1 -1 -3 -3 -3 -0 -0 1 1 2 2 -4 -4 -2 1 -1 1 1 0 -6 -10 -4 -1 -1 0 1 -3 -1 0 0 0 0
2 -2 -1 -3 -2 -2 1 -1 -0 -1 1 1 0 1 -0 -4 -5 -4 -3 -2 -1 0 -1 -3 -5 -6 -6 -3 -1 -1 -1 -2 -5 -4 -5 -1 -4 -3 -3 -4 -1 -0 -0 -0 -0
1 -2 -2 -2 1 -1 -0 -2 -0 -1 -1 -0 -1 0 -2 -3 -1 -3 -5 -5 -2 -3 -5 -5 -6 -6 -8 -3 -3 -4 -2 -3 -2 -3 -5 -4 -4 -1 -0 -1 -1 -0 -1 -2 -2
0 2 3 -1 -2 -1 -1 -1 0 -0 -1 1 -0 -2 -1 -1 -0 -0 -0 -0 -1 -5 -8 -8 -8 -10 -8 -5 -7 -7 -4 -2 -5 -7 -8 -8 -6 -4 -6 -4 -3 -3 -2 -2 -2

GFSSW_850_temp_342.txt.gz
Temp
12 12 12 13 12 12 13 12 12 12 12 12 13 13 13 12 12 12 13 11 12 12 12 13 13 13 14 14 14 14 8 10 12 13 12 13 13 14 14 14 14 13 12 12 13
12 12 12 12 12 12 12 12 12 12 12 12 12 12 12 11 11 12 10 11 11 12 12 13 13 13 13 13 14 11 7 12 12 12 11 12 12 12 13 13 14 13 12 12 13
11 12 12 12 12 12 12 12 12 12 12 12 12 12 11 11 11 10 10 10 11 11 12 12 12 13 13 13 12 12 10 12 11 12 12 12 12 12 11 11 12 12 13 13 13
11 11 11 11 11 11 12 12 12 12 12 12 12 11 11 11 11 10 10 10 11 11 12 12 12 13 11 11 12 11 11 12 12 12 12 11 12 11 11 12 12 12 11 11 11
11 11 11 11 11 11 12 12 12 12 12 11 11 11 10 11 9 9 10 10 11 11 12 12 12 11 10 11 11 10 10 11 12 12 12 12 11 11 11 12 11 11 11 11 10
11 11 11 11 11 11 11 12 12 11 11 11 11 10 10 9 9 9 10 10 10 11 11 11 10 10 11 10 10 10 10 10 11 11 12 11 10 10 11 11 11 11 11 10 10
11 11 11 11 11 11 11 11 11 11 11 11 11 10 10 8 9 9 9 9 10 10 10 10 10 11 10 10 10 10 9 8 10 10 11 11 11 9 11 11 11 11 10 9 9
11 11 11 11 11 10 11 11 11 11 10 10 10 10 8 8 8 8 9 9 9 10 10 10 10 10 10 10 9 9 7 7 10 10 10 11 8 10 11 11 11 11 9 8 8
10 10 10 10 10 10 10 10 10 10 10 9 10 10 7 7 8 8 8 9 9 9 9 10 10 9 9 6 6 5 8 9 9 10 10 10 8 10 11 10 10 9 8 6 6
10 10 10 10 10 10 10 10 10 9 9 9 9 9 7 7 7 8 8 8 9 9 9 9 9 4 3 5 8 8 8 7 8 8 8 8 6 7 10 10 10 8 7 5 6
10 10 10 10 10 10 9 9 9 9 8 7 7 7 7 7 7 7 8 8 8 9 6 7 4 5 6 7 7 7 7 6 6 7 7 7 6 7 8 8 8 6 5 5 6
10 10 9 9 10 9 9 9 8 8 6 6 6 7 7 7 7 7 8 8 8 6 7 5 6 7 8 7 7 7 6 5 5 6 7 5 5 5 6 5 6 5 5 6 5
9 9 9 9 9 9 9 8 8 8 7 5 6 6 6 7 6 6 7 7 7 7 7 6 7 7 7 6 6 6 6 5 5 4 5 4 4 3 4 5 5 5 5 4 5
9 9 8 8 8 8 8 8 8 8 3 5 5 5 6 6 6 6 6 7 7 6 6 6 6 6 6 6 6 6 6 6 5 4 3 4 1 3 4 4 5 5 4 3 3
8 8 8 7 8 8 8 8 8 8 5 5 5 5 5 6 5 5 6 7 6 6 6 6 6 6 5 6 7 6 6 5 5 4 3 3 1 3 4 7 6 5 3 3 3
7 7 8 7 8 7 8 8 7 2 5 3 4 4 5 6 5 5 6 6 6 5 5 5 6 6 6 6 6 6 5 2 2 2 -3 3 3 3 4 5 3 5 4 3 3
6 6 6 7 7 7 7 7 2 3 3 2 3 4 4 4 5 5 5 4 4 4 5 5 5 5 6 5 5 4 2 -4 -2 -3 -1 3 3 3 4 4 4 4 5 3 3
5 5 6 6 7 7 7 3 3 1 1 3 3 3 4 4 4 5 4 3 4 4 2 3 3 5 5 5 5 4 2 -3 -2 -2 -0 3 1 4 4 5 5 4 3 3 3
3 3 4 5 6 6 6 -0 3 2 2 3 3 1 2 4 3 4 3 2 3 4 4 3 5 4 4 4 4 4 1 3 -4 -7 -4 1 2 4 4 2 3 3 4 3 3
2 1 3 4 4 4 0 3 1 4 3 3 4 0 -1 -1 3 2 2 3 3 3 4 3 2 4 4 4 3 4 3 0 -5 -4 -4 -1 2 2 4 1 0 1 2 2 2
1 2 2 3 3 3 -2 -1 2 4 5 4 2 -1 1 0 1 0 2 2 2 2 4 2 2 3 4 3 2 -0 -1 -1 -0 -1 -4 -4 0 1 2 -0 -1 -0 1 1 1
1 -1 0 2 1 -0 -4 -0 3 2 3 3 3 1 0 -1 -2 1 2 3 3 2 2 2 0 -2 2 1 2 2 2 0 -4 -2 -2 -3 1 2 -1 -1 -0 -1 -0 1 1
1 -2 -2 -0 -0 -3 -3 1 2 1 2 2 3 3 0 -1 0 -1 1 -0 2 1 -0 0 -3 -7 -2 -0 1 2 1 0 -7 -7 -4 -6 -1 1 1 -0 -1 -1 -0 -0 -0
-0 -3 -4 -2 -2 -2 -3 -1 0 1 1 2 1 1 -0 -3 -3 -2 -1 -1 1 1 1 1 -6 -4 -1 1 -1 1 1 0 -6 -10 -5 -3 -3 -1 -2 -4 -2 -1 -1 -1 -2
-1 -3 -2 -3 -3 -2 1 1 1 -0 1 2 0 1 1 -2 -4 -4 -4 -2 -1 1 -1 -2 -4 -7 -7 -3 -2 -1 -1 -1 -6 -8 -5 -1 -8 -4 -8 -6 -3 -4 -2 -2 -2
-2 -3 -3 -2 0 -1 1 -2 1 -1 -0 0 0 1 -2 -2 1 -2 -5 -6 -2 -3 -6 -6 -5 -6 -8 -4 -4 -4 -3 -3 -3 -6 -6 -5 -4 -3 -4 -5 -5 -5 -4 -5 -5
-1 -1 -0 -2 -0 -0 1 -1 2 0 -1 1 1 -1 -1 -0 -1 -1 -1 -1 -2 -5 -8 -6 -7 -10 -8 -6 -7 -5 -5 -2 -5 -8 -8 -8 -7 -6 -8 -8 -8 -7 -7 -7 -7

GFSSW_850_temp_345.txt.gz
Temp
12 12 12 13 12 12 12 12 13 13 13 13 12 12 12 12 12 13 13 11 12 12 13 13 13 14 14 14 14 13 7 9 11 12 11 12 12 13 13 13 13 13 12 11 11
12 12 12 12 12 12 12 12 12 12 12 13 12 12 11 12 12 13 10 11 12 12 12 13 13 14 13 13 13 10 7 11 10 11 11 11 11 11 12 12 12 12 12 11 11
11 12 12 12 12 12 12 12 12 13 12 12 12 12 12 12 12 10 10 11 11 12 12 13 13 13 12 12 12 11 9 10 11 11 11 11 11 11 11 10 11 11 11 11 11
11 12 12 12 12 12 12 12 12 12 12 12 12 12 12 12 12 10 10 11 11 12 12 12 13 12 10 10 11 9 10 11 11 11 11 11 11 11 10 11 11 11 10 10 10
11 11 11 12 12 12 12 12 12 12 12 12 12 12 11 11 9 9 10 11 11 12 12 12 12 11 9 10 10 9 9 11 11 11 11 11 10 10 10 11 11 10 10 10 9
11 11 11 11 11 11 12 11 12 12 12 12 12 11 11 10 9 9 10 10 11 11 11 12 11 11 10 9 9 9 9 9 10 10 11 10 10 10 10 10 11 10 10 10 9
11 11 11 11 11 11 11 11 12 11 11 11 11 11 11 9 9 9 9 10 10 10 11 11 11 11 10 9 9 9 9 9 9 9 10 10 10 10 10 10 10 10 9 9 8
11 11 11 11 11 11 11 11 11 11 11 11 11 10 9 8 8 9 9 10 10 10 10 10 10 10 10 9 8 7 6 7 8 10 10 10 8 9 10 10 10 9 8 7 7
11 11 11 10 11 11 11 11 11 11 11 10 10 10 8 8 8 8 9 9 10 10 10 10 10 9 9 6 6 4 7 8 9 8 8 7 7 9 10 9 9 8 6 5 6
11 11 10 11 10 10 10 10 10 10 10 9 10 10 8 7 8 8 8 9 9 9 10 10 9 4 3 4 8 8 7 7 7 6 6 6 6 6 8 7 7 6 5 5 6
10 10 10 9 10 10 10 10 10 9 9 7 7 7 7 7 7 8 8 8 9 9 6 7 3 4 6 6 7 6 7 6 6 7 6 6 4 4 6 6 5 4 4 5 5
10 10 10 9 10 10 10 9 10 9 6 6 6 7 7 7 7 7 8 8 8 6 7 5 5 6 7 6 6 6 6 5 5 6 5 4 4 3 4 4 4 4 4 4 4
10 10 9 9 10 9 9 9 9 9 7 5 6 6 6 7 6 7 7 7 7 6 5 5 6 6 7 5 6 5 5 5 5 4 4 3 5 3 5 5 5 4 4 4 4
10 9 9 9 9 9 9 9 9 9 4 6 5 5 6 6 6 6 6 7 6 5 5 5 6 6 6 5 6 6 5 5 5 4 4 3 2 4 4 4 4 4 4 4 3
9 9 9 8 8 8 9 9 8 9 6 5 5 5 5 6 5 6 6 7 5 5 6 5 5 5 5 5 6 6 5 4 5 3 3 3 0 3 3 4 2 4 4 4 3
9 9 9 8 8 8 8 8 8 3 6 3 4 4 5 5 5 5 6 6 6 4 4 5 5 5 5 5 5 5 4 2 1 1 -4 3 3 3 3 3 2 3 4 4 4
7 8 8 8 7 7 7 8 3 5 4 3 3 4 4 4 4 5 4 4 4 4 5 4 4 5 5 5 5 4 2 -3 -2 -3 -2 2 2 3 3 2 2 1 3 3 3
5 6 7 7 7 7 7 2 5 1 1 3 3 3 4 4 4 4 3 3 4 3 2 3 3 4 5 5 5 3 2 -3 -1 -2 -1 1 -0 4 2 2 2 2 1 2 2
4 4 5 6 6 6 6 2 3 3 2 3 3 1 1 3 3 4 3 2 2 2 5 3 4 3 3 4 4 4 -0 2 -5 -9 -5 -0 2 3 1 -1 1 0 1 1 1
4 2 4 4 5 4 -0 4 2 4 3 3 6 1 1 -1 2 2 2 3 3 3 3 3 2 3 3 4 3 4 2 -0 -5 -3 -4 -2 1 2 1 -1 -2 -2 -1 0 0
2 2 3 3 3 3 -2 -1 2 4 5 4 3 -0 1 0 1 0 2 3 2 2 3 2 2 2 3 3 2 -0 -2 -1 -1 -2 -4 -5 -2 -0 -1 -1 -3 -2 -0 -0 -0
2 -2 -0 1 1 -2 -5 -1 3 2 3 4 3 2 1 -1 -1 1 2 2 2 3 2 2 0 -2 2 0 0 2 2 -1 -4 -3 -4 -4 -2 -1 -2 -2 -2 -1 -1 -1 -1
2 -2 -2 0 -2 -5 -4 1 2 1 1 2 3 3 1 0 2 -1 1 -0 1 1 0 0 -3 -6 -2 -1 1 1 1 -2 -7 -7 -4 -7 -3 -2 -2 -2 -2 -3 -2 -2 -2
2 -3 -3 -2 -2 -2 -3 -1 1 2 2 3 1 1 -0 -1 -3 -3 -1 -1 0 1 1 1 -5 -3 0 2 -1 0 -0 -1 -6 -8 -7 -3 -3 -0 -2 -6 -4 -3 -3 -3 -4
0 -2 -2 -4 -3 -3 1 -0 3 -0 1 2 0 2 2 -1 -3 -4 -3 -2 -1 0 -1 -2 -3 -7 -8 -2 -1 0 0 -2 -5 -7 -3 -0 -5 -8 -9 -8 -6 -5 -5 -5 -5
-0 -2 -3 -2 1 -1 1 -0 3 0 0 1 1 1 -1 -0 2 -1 -3 -4 -1 -4 -5 -6 -6 -6 -7 -5 -5 -4 -3 -3 -3 -7 -7 -5 -4 -4 -5 -6 -6 -6 -6 -7 -7
0 -1 2 -2 -0 -1 2 3 3 3 0 2 1 -1 -1 -0 -1 -3 -2 -2 -3 -4 -6 -5 -7 -7 -7 -7 -8 -4 -3 -3 -6 -9 -9 -8 -6 -6 -9 -8 -7 -7 -8 -8 -8